| time (UTC) | temp F | wind direction | speed knots | gust knots | rain 1hr in | rain 24hr in | rain mn in | humidity % | barometer mb |
| 20260507015020 | 76 | 281 | 2.6 | 7.0 | 0.00 | 0.00 | 0.00 | 81 | 1015.0 |
| 20260507014553 | 76 | 264 | 1.7 | 7.0 | 0.00 | 0.00 | 0.00 | 80 | 1015.0 |
| 20260507014018 | 76 | 279 | 3.5 | 7.0 | 0.00 | 0.00 | 0.00 | 80 | 1014.8 |
| 20260507013519 | 76 | 290 | 3.5 | 6.1 | 0.00 | 0.00 | 0.00 | 79 | 1014.8 |
| 20260507013041 | 77 | 261 | 2.6 | 6.1 | 0.00 | 0.00 | 0.00 | 78 | 1014.7 |
| 20260507012521 | 77 | 284 | 1.7 | 6.1 | 0.00 | 0.00 | 0.00 | 77 | 1014.6 |
| 20260507012023 | 77 | 274 | 2.6 | 6.1 | 0.00 | 0.00 | 0.00 | 76 | 1014.8 |
| 20260507011541 | 77 | 283 | 2.6 | 6.1 | 0.00 | 0.00 | 0.00 | 75 | 1014.8 |
| 20260507011020 | 78 | 289 | 2.6 | 6.1 | 0.00 | 0.00 | 0.00 | 75 | 1014.9 |
| 20260507010523 | 78 | 288 | 2.6 | 6.1 | 0.00 | 0.00 | 0.00 | 74 | 1014.9 |
| 20260507010042 | 78 | 259 | 3.5 | 6.1 | 0.00 | 0.00 | 0.00 | 74 | 1014.7 |
| 20260507005526 | 78 | 291 | 2.6 | 6.1 | 0.00 | 0.00 | 0.00 | 74 | 1014.7 |
| 20260507005025 | 78 | 265 | 3.5 | 7.8 | 0.00 | 0.00 | 0.00 | 73 | 1014.7 |
| 20260507004541 | 79 | 271 | 3.5 | 7.8 | 0.00 | 0.00 | 0.00 | 73 | 1014.7 |
| 20260507004020 | 79 | 263 | 4.3 | 7.8 | 0.00 | 0.00 | 0.00 | 73 | 1014.6 |
| 20260507003518 | 79 | 254 | 4.3 | 7.8 | 0.00 | 0.00 | 0.00 | 73 | 1014.6 |
| 20260507003035 | 80 | 261 | 3.5 | 7.8 | 0.00 | 0.00 | 0.00 | 74 | 1014.6 |
| 20260507002522 | 80 | 267 | 4.3 | 7.8 | 0.00 | 0.00 | 0.00 | 73 | 1014.5 |
| 20260507002020 | 80 | 273 | 3.5 | 8.7 | 0.00 | 0.00 | 0.00 | 73 | 1014.4 |
| 20260507001534 | 80 | 271 | 5.2 | 9.6 | 0.00 | 0.00 | 0.00 | 73 | 1014.4 |
| 20260507001022 | 81 | 285 | 4.3 | 9.6 | 0.00 | 0.00 | 0.00 | 72 | 1014.2 |
| 20260507000518 | 81 | 270 | 6.1 | 9.6 | 0.00 | 0.00 | 0.00 | 72 | 1014.3 |
| 20260507000044 | 81 | 285 | 5.2 | 8.7 | 0.00 | 0.00 | 0.00 | 71 | 1014.3 |
| 20260506235518 | 81 | 267 | 4.3 | 8.7 | 0.00 | 0.00 | 0.00 | 71 | 1014.2 |
| 20260506235017 | 82 | 269 | 4.3 | 8.7 | 0.00 | 0.00 | 0.00 | 71 | 1014.1 |
| 20260506234541 | 82 | 276 | 3.5 | 11.3 | 0.00 | 0.00 | 0.00 | 70 | 1014.2 |
| 20260506234018 | 83 | 290 | 6.1 | 11.3 | 0.00 | 0.00 | 0.00 | 68 | 1014.2 |
| 20260506233518 | 83 | 279 | 7.8 | 11.3 | 0.00 | 0.00 | 0.00 | 68 | 1014.1 |
| 20260506233037 | 84 | 265 | 6.1 | 8.7 | 0.00 | 0.00 | 0.00 | 69 | 1014.1 |
| 20260506232517 | 84 | 263 | 3.5 | 8.7 | 0.00 | 0.00 | 0.00 | 69 | 1014.2 |
| 20260506232017 | 84 | 279 | 5.2 | 9.6 | 0.00 | 0.00 | 0.00 | 68 | 1014.1 |
| 20260506231537 | 84 | 255 | 6.1 | 11.3 | 0.00 | 0.00 | 0.00 | 67 | 1014.1 |
| 20260506231021 | 84 | 267 | 6.1 | 12.2 | 0.00 | 0.00 | 0.00 | 67 | 1014.2 |
| 20260506230518 | 85 | 261 | 7.8 | 12.2 | 0.00 | 0.00 | 0.00 | 66 | 1014.0 |
| 20260506230036 | 85 | 268 | 6.1 | 9.6 | 0.00 | 0.00 | 0.00 | 65 | 1014.0 |
| 20260506225517 | 85 | 285 | 4.3 | 12.2 | 0.00 | 0.00 | 0.00 | 65 | 1013.9 |
| 20260506225018 | 86 | 281 | 6.1 | 12.2 | 0.00 | 0.00 | 0.00 | 65 | 1013.9 |
| 20260506224543 | 86 | 288 | 5.2 | 12.2 | 0.00 | 0.00 | 0.00 | 65 | 1013.9 |
| 20260506224017 | 86 | 280 | 7.0 | 12.2 | 0.00 | 0.00 | 0.00 | 65 | 1013.9 |
| 20260506223517 | 87 | 254 | 7.8 | 12.2 | 0.00 | 0.00 | 0.00 | 63 | 1013.9 |
| 20260506223041 | 87 | 252 | 7.0 | 11.3 | 0.00 | 0.00 | 0.00 | 63 | 1013.9 |
| 20260506222518 | 88 | 286 | 7.8 | 11.3 | 0.00 | 0.00 | 0.00 | 62 | 1013.9 |
| 20260506222018 | 88 | 273 | 6.1 | 11.3 | 0.00 | 0.00 | 0.00 | 62 | 1013.8 |
| 20260506221544 | 88 | 282 | 6.1 | 14.8 | 0.00 | 0.00 | 0.00 | 61 | 1013.9 |
| 20260506221017 | 90 | 256 | 8.7 | 14.8 | 0.00 | 0.00 | 0.00 | 56 | 1013.8 |
| 20260506220517 | 92 | 285 | 2.6 | 6.1 | 0.00 | 0.00 | 0.00 | 43 | 1013.8 |
| 20260506220042 | 91 | 244 | 1.7 | 5.2 | 0.00 | 0.00 | 0.00 | 43 | 1013.9 |
| 20260506215517 | 92 | 243 | 0.9 | 6.1 | 0.00 | 0.00 | 0.00 | 41 | 1013.8 |
| 20260506215017 | 94 | 258 | 0.9 | 7.8 | 0.00 | 0.00 | 0.00 | 40 | 1013.8 |
| 20260506214538 | 94 | 254 | 5.2 | 7.8 | 0.00 | 0.00 | 0.00 | 41 | 1013.7 |
| 20260506214016 | 93 | 278 | 0.0 | 2.6 | 0.00 | 0.00 | 0.00 | 39 | 1013.7 |
| 20260506213517 | 94 | 0 | 0.0 | 6.1 | 0.00 | 0.00 | 0.00 | 38 | 1013.8 |
| 20260506213036 | 94 | 0 | 1.7 | 7.8 | 0.00 | 0.00 | 0.00 | 39 | 1013.9 |
| 20260506212517 | 94 | 276 | 0.9 | 7.8 | 0.00 | 0.00 | 0.00 | 39 | 1013.9 |
| 20260506212019 | 95 | 248 | 1.7 | 4.3 | 0.00 | 0.00 | 0.00 | 37 | 1014.0 |
| 20260506211542 | 94 | 172 | 0.0 | 6.1 | 0.00 | 0.00 | 0.00 | 39 | 1013.9 |
| 20260506211018 | 94 | 160 | 0.9 | 6.1 | 0.00 | 0.00 | 0.00 | 40 | 1013.9 |
| 20260506210520 | 94 | 278 | 0.9 | 5.2 | 0.00 | 0.00 | 0.00 | 40 | 1013.9 |
| 20260506210044 | 94 | 43 | 2.6 | 7.0 | 0.00 | 0.00 | 0.00 | 38 | 1013.9 |
| 20260506205520 | 96 | 58 | 2.6 | 7.0 | 0.00 | 0.00 | 0.00 | 38 | 1013.9 |
| 20260506205018 | 96 | 103 | 0.9 | 6.1 | 0.00 | 0.00 | 0.00 | 38 | 1013.9 |
| 20260506204541 | 96 | 188 | 0.9 | 6.1 | 0.00 | 0.00 | 0.00 | 37 | 1013.9 |
| 20260506204017 | 95 | 222 | 0.9 | 7.8 | 0.00 | 0.00 | 0.00 | 38 | 1013.9 |
| 20260506203517 | 94 | 263 | 1.7 | 7.8 | 0.00 | 0.00 | 0.00 | 39 | 1013.9 |
| 20260506203048 | 94 | 158 | 1.7 | 7.8 | 0.00 | 0.00 | 0.00 | 40 | 1013.9 |
| 20260506202517 | 93 | 0 | 0.0 | 4.3 | 0.00 | 0.00 | 0.00 | 43 | 1014.0 |
| 20260506202017 | 92 | 170 | 0.0 | 3.5 | 0.00 | 0.00 | 0.00 | 41 | 1014.0 |
| 20260506201545 | 92 | 0 | 0.9 | 7.0 | 0.00 | 0.00 | 0.00 | 42 | 1014.1 |
| 20260506201018 | 91 | 298 | 0.9 | 8.7 | 0.00 | 0.00 | 0.00 | 42 | 1014.0 |
| 20260506200517 | 93 | 293 | 4.3 | 9.6 | 0.00 | 0.00 | 0.00 | 39 | 1014.1 |
| 20260506200037 | 94 | 263 | 6.1 | 9.6 | 0.00 | 0.00 | 0.00 | 40 | 1014.1 |
| 20260506195520 | 94 | 266 | 5.2 | 9.6 | 0.00 | 0.00 | 0.00 | 38 | 1014.1 |
| 20260506195020 | 94 | 182 | 0.0 | 2.6 | 0.00 | 0.00 | 0.00 | 39 | 1014.1 |
| 20260506194540 | 95 | 0 | 0.0 | 2.6 | 0.00 | 0.00 | 0.00 | 39 | 1014.2 |
| 20260506194018 | 93 | 98 | 0.0 | 2.6 | 0.00 | 0.00 | 0.00 | 38 | 1014.2 |
| 20260506193518 | 94 | 211 | 0.9 | 6.1 | 0.00 | 0.00 | 0.00 | 39 | 1014.3 |
| 20260506193042 | 94 | 53 | 0.9 | 7.0 | 0.00 | 0.00 | 0.00 | 38 | 1014.4 |
| 20260506192524 | 94 | 142 | 3.5 | 7.0 | 0.00 | 0.00 | 0.00 | 39 | 1014.5 |
| 20260506192020 | 94 | 242 | 0.9 | 6.1 | 0.00 | 0.00 | 0.00 | 40 | 1014.4 |
| 20260506191541 | 94 | 182 | 0.9 | 6.1 | 0.00 | 0.00 | 0.00 | 39 | 1014.6 |
| 20260506191017 | 95 | 213 | 1.7 | 6.1 | 0.00 | 0.00 | 0.00 | 40 | 1014.6 |
| 20260506190517 | 95 | 0 | 1.7 | 6.1 | 0.00 | 0.00 | 0.00 | 41 | 1014.6 |
| 20260506190038 | 94 | 278 | 0.9 | 7.0 | 0.00 | 0.00 | 0.00 | 41 | 1014.7 |
| 20260506185519 | 94 | 117 | 1.7 | 7.0 | 0.00 | 0.00 | 0.00 | 40 | 1014.8 |
| 20260506185020 | 94 | 150 | 1.7 | 7.0 | 0.00 | 0.00 | 0.00 | 41 | 1014.9 |
| 20260506184547 | 95 | 59 | 0.9 | 6.1 | 0.00 | 0.00 | 0.00 | 38 | 1014.9 |
| 20260506184017 | 93 | 121 | 2.6 | 7.0 | 0.00 | 0.00 | 0.00 | 40 | 1015.0 |
| 20260506183518 | 93 | 85 | 1.7 | 7.8 | 0.00 | 0.00 | 0.00 | 40 | 1015.1 |
| 20260506183034 | 92 | 167 | 3.5 | 7.8 | 0.00 | 0.00 | 0.00 | 42 | 1015.3 |
| 20260506182520 | 92 | 130 | 1.7 | 7.0 | 0.00 | 0.00 | 0.00 | 43 | 1015.3 |
| 20260506182018 | 93 | 262 | 2.6 | 7.0 | 0.00 | 0.00 | 0.00 | 42 | 1015.3 |
| 20260506181541 | 94 | 168 | 0.9 | 5.2 | 0.00 | 0.00 | 0.00 | 42 | 1015.2 |
| 20260506181017 | 92 | 170 | 0.9 | 7.0 | 0.00 | 0.00 | 0.00 | 44 | 1015.2 |
| 20260506180522 | 92 | 50 | 0.9 | 7.0 | 0.00 | 0.00 | 0.00 | 42 | 1015.2 |
| 20260506180040 | 92 | 107 | 2.6 | 7.0 | 0.00 | 0.00 | 0.00 | 44 | 1015.3 |
| 20260506175521 | 92 | 120 | 2.6 | 7.0 | 0.00 | 0.00 | 0.00 | 42 | 1015.4 |
| 20260506175020 | 92 | 119 | 3.5 | 7.0 | 0.00 | 0.00 | 0.00 | 44 | 1015.4 |
| 20260506174538 | 92 | 142 | 1.7 | 7.8 | 0.00 | 0.00 | 0.00 | 42 | 1015.5 |
| 20260506174019 | 91 | 0 | 0.9 | 7.8 | 0.00 | 0.00 | 0.00 | 43 | 1015.6 |
| 20260506173520 | 91 | 181 | 2.6 | 7.8 | 0.00 | 0.00 | 0.00 | 45 | 1015.7 |
| 20260506173046 | 90 | 285 | 2.6 | 10.4 | 0.00 | 0.00 | 0.00 | 47 | 1015.7 |
| 20260506172517 | 92 | 176 | 2.6 | 10.4 | 0.00 | 0.00 | 0.00 | 46 | 1015.8 |
| 20260506172024 | 90 | 132 | 0.9 | 5.2 | 0.00 | 0.00 | 0.00 | 48 | 1015.7 |
| 20260506171550 | 92 | 273 | 1.7 | 9.6 | 0.00 | 0.00 | 0.00 | 45 | 1015.8 |
| 20260506171021 | 91 | 174 | 1.7 | 10.4 | 0.00 | 0.00 | 0.00 | 48 | 1015.9 |
| 20260506170521 | 89 | 268 | 5.2 | 10.4 | 0.00 | 0.00 | 0.00 | 49 | 1015.9 |
| 20260506170035 | 89 | 269 | 1.7 | 7.0 | 0.00 | 0.00 | 0.00 | 47 | 1015.9 |
| 20260506165521 | 89 | 241 | 0.0 | 8.7 | 0.00 | 0.00 | 0.00 | 48 | 1015.9 |
| 20260506165020 | 90 | 257 | 1.7 | 8.7 | 0.00 | 0.00 | 0.00 | 47 | 1016.0 |
| 20260506164543 | 91 | 166 | 1.7 | 8.7 | 0.00 | 0.00 | 0.00 | 48 | 1016.0 |
| 20260506164023 | 89 | 76 | 2.6 | 8.7 | 0.00 | 0.00 | 0.00 | 47 | 1016.0 |
| 20260506163523 | 90 | 164 | 2.6 | 7.8 | 0.00 | 0.00 | 0.00 | 48 | 1016.2 |
| 20260506163058 | 90 | 27 | 1.7 | 6.1 | 0.00 | 0.00 | 0.00 | 45 | 1016.2 |
| 20260506162522 | 89 | 135 | 1.7 | 7.8 | 0.00 | 0.00 | 0.00 | 50 | 1016.3 |
| 20260506162017 | 88 | 66 | 2.6 | 7.8 | 0.00 | 0.00 | 0.00 | 50 | 1016.3 |
| 20260506161544 | 88 | 104 | 1.7 | 7.8 | 0.00 | 0.00 | 0.00 | 49 | 1016.4 |
| 20260506161017 | 87 | 219 | 1.7 | 5.2 | 0.00 | 0.00 | 0.00 | 51 | 1016.5 |
| 20260506160523 | 87 | 275 | 1.7 | 7.8 | 0.00 | 0.00 | 0.00 | 53 | 1016.5 |
| 20260506160042 | 88 | 166 | 1.7 | 7.8 | 0.00 | 0.00 | 0.00 | 51 | 1016.5 |
| 20260506155520 | 88 | 150 | 0.9 | 7.8 | 0.00 | 0.00 | 0.00 | 53 | 1016.6 |
| 20260506155017 | 88 | 211 | 0.9 | 7.8 | 0.00 | 0.00 | 0.00 | 52 | 1016.7 |
| 20260506154540 | 87 | 242 | 3.5 | 7.8 | 0.00 | 0.00 | 0.00 | 53 | 1016.7 |
| 20260506154022 | 86 | 153 | 2.6 | 7.0 | 0.00 | 0.00 | 0.00 | 53 | 1016.6 |
| 20260506153516 | 87 | 142 | 0.9 | 7.8 | 0.00 | 0.00 | 0.00 | 54 | 1016.5 |
| 20260506153039 | 87 | 166 | 1.7 | 7.8 | 0.00 | 0.00 | 0.00 | 52 | 1016.6 |
| 20260506152521 | 87 | 163 | 1.7 | 7.0 | 0.00 | 0.00 | 0.00 | 53 | 1016.6 |
| 20260506152017 | 87 | 111 | 1.7 | 6.1 | 0.00 | 0.00 | 0.00 | 54 | 1016.6 |
| 20260506151535 | 87 | 206 | 1.7 | 7.0 | 0.00 | 0.00 | 0.00 | 55 | 1016.6 |
| 20260506151019 | 85 | 113 | 3.5 | 7.0 | 0.00 | 0.00 | 0.00 | 56 | 1016.5 |
| 20260506150520 | 86 | 149 | 2.6 | 9.6 | 0.00 | 0.00 | 0.00 | 55 | 1016.4 |
| 20260506150040 | 85 | 163 | 3.5 | 9.6 | 0.00 | 0.00 | 0.00 | 57 | 1016.5 |
| 20260506145521 | 85 | 153 | 1.7 | 7.8 | 0.00 | 0.00 | 0.00 | 58 | 1016.5 |
| 20260506145021 | 84 | 219 | 3.5 | 8.7 | 0.00 | 0.00 | 0.00 | 58 | 1016.3 |
| 20260506144538 | 84 | 235 | 1.7 | 8.7 | 0.00 | 0.00 | 0.00 | 61 | 1016.5 |
| 20260506144017 | 84 | 91 | 2.6 | 8.7 | 0.00 | 0.00 | 0.00 | 61 | 1016.4 |
| 20260506143516 | 83 | 182 | 4.3 | 8.7 | 0.00 | 0.00 | 0.00 | 60 | 1016.3 |
| 20260506143037 | 83 | 169 | 2.6 | 8.7 | 0.00 | 0.00 | 0.00 | 63 | 1016.3 |
| 20260506142516 | 83 | 129 | 2.6 | 7.0 | 0.00 | 0.00 | 0.00 | 63 | 1016.3 |
| 20260506142017 | 82 | 162 | 1.7 | 7.0 | 0.00 | 0.00 | 0.00 | 64 | 1016.3 |
| 20260506141534 | 82 | 180 | 3.5 | 7.0 | 0.00 | 0.00 | 0.00 | 65 | 1016.3 |
| 20260506141017 | 82 | 133 | 1.7 | 8.7 | 0.00 | 0.00 | 0.00 | 70 | 1016.4 |
| 20260506140522 | 80 | 170 | 3.5 | 8.7 | 0.00 | 0.00 | 0.00 | 68 | 1016.4 |
| 20260506140042 | 80 | 168 | 3.5 | 7.8 | 0.00 | 0.00 | 0.00 | 69 | 1016.4 |
| 20260506135517 | 79 | 117 | 4.3 | 7.8 | 0.00 | 0.00 | 0.00 | 71 | 1016.3 |
| 20260506135016 | 79 | 117 | 3.5 | 7.8 | 0.00 | 0.00 | 0.00 | 72 | 1016.3 |
| 20260506134532 | 79 | 173 | 2.6 | 9.6 | 0.00 | 0.00 | 0.00 | 74 | 1016.3 |
| 20260506134018 | 78 | 167 | 4.3 | 9.6 | 0.00 | 0.00 | 0.00 | 74 | 1016.4 |
| 20260506133519 | 78 | 184 | 4.3 | 8.7 | 0.00 | 0.00 | 0.00 | 76 | 1016.4 |
| 20260506133037 | 77 | 118 | 4.3 | 7.8 | 0.00 | 0.00 | 0.00 | 77 | 1016.3 |
| 20260506132516 | 77 | 145 | 3.5 | 8.7 | 0.00 | 0.00 | 0.00 | 79 | 1016.4 |
| 20260506132020 | 76 | 173 | 4.3 | 8.7 | 0.00 | 0.00 | 0.00 | 81 | 1016.3 |
| 20260506131533 | 75 | 171 | 4.3 | 7.8 | 0.00 | 0.00 | 0.00 | 80 | 1016.1 |
| 20260506131019 | 75 | 112 | 2.6 | 7.0 | 0.00 | 0.00 | 0.00 | 81 | 1016.2 |
| 20260506130520 | 75 | 123 | 1.7 | 7.0 | 0.00 | 0.00 | 0.00 | 81 | 1016.1 |
| 20260506130036 | 74 | 128 | 2.6 | 7.0 | 0.00 | 0.00 | 0.00 | 82 | 1016.2 |
| 20260506125517 | 74 | 118 | 3.5 | 6.1 | 0.00 | 0.00 | 0.00 | 82 | 1016.1 |
| 20260506125017 | 73 | 173 | 2.6 | 7.0 | 0.00 | 0.00 | 0.00 | 83 | 1016.1 |
| 20260506124538 | 72 | 126 | 2.6 | 7.0 | 0.00 | 0.00 | 0.00 | 83 | 1016.0 |
| 20260506124016 | 72 | 134 | 2.6 | 7.8 | 0.00 | 0.00 | 0.00 | 84 | 1015.9 |
| 20260506123516 | 71 | 136 | 3.5 | 7.8 | 0.00 | 0.00 | 0.00 | 85 | 1015.9 |
| 20260506123036 | 71 | 98 | 1.7 | 6.1 | 0.00 | 0.00 | 0.00 | 86 | 1015.9 |
| 20260506122516 | 70 | 115 | 1.7 | 5.2 | 0.00 | 0.00 | 0.00 | 86 | 1015.8 |
| 20260506122016 | 69 | 138 | 0.9 | 4.3 | 0.00 | 0.00 | 0.00 | 88 | 1015.7 |
| 20260506121534 | 68 | 156 | 0.9 | 3.5 | 0.00 | 0.00 | 0.00 | 88 | 1015.8 |
| 20260506121017 | 67 | 0 | 0.9 | 3.5 | 0.00 | 0.00 | 0.00 | 89 | 1015.6 |
| 20260506120517 | 66 | 144 | 1.7 | 3.5 | 0.00 | 0.00 | 0.00 | 90 | 1015.5 |
| 20260506120045 | 65 | 125 | 1.7 | 3.5 | 0.00 | 0.00 | 0.00 | 90 | 1015.5 |
| 20260506115517 | 65 | 117 | 0.9 | 2.6 | 0.00 | 0.00 | 0.00 | 91 | 1015.5 |
| 20260506115016 | 64 | 0 | 0.0 | 0.0 | 0.00 | 0.00 | 0.00 | 91 | 1015.5 |
| 20260506114537 | 63 | 0 | 0.0 | 0.0 | 0.00 | 0.00 | 0.00 | 91 | 1015.4 |
| 20260506114017 | 63 | 0 | 0.0 | 0.0 | 0.00 | 0.00 | 0.00 | 91 | 1015.4 |
| 20260506113518 | 62 | 0 | 0.0 | 0.0 | 0.00 | 0.00 | 0.00 | 92 | 1015.5 |
| 20260506113035 | 62 | 0 | 0.0 | 0.0 | 0.00 | 0.00 | 0.00 | 92 | 1015.4 |
| 20260506112519 | 61 | 0 | 0.0 | 0.0 | 0.00 | 0.00 | 0.00 | 93 | 1015.5 |
| 20260506112019 | 60 | 0 | 0.0 | 0.0 | 0.00 | 0.00 | 0.00 | 93 | 1015.5 |
| 20260506111543 | 60 | 0 | 0.0 | 0.0 | 0.00 | 0.00 | 0.00 | 92 | 1015.4 |
| 20260506111017 | 60 | 0 | 0.0 | 0.0 | 0.00 | 0.00 | 0.00 | 93 | 1015.4 |
| 20260506110517 | 60 | 0 | 0.0 | 0.0 | 0.00 | 0.00 | 0.00 | 93 | 1015.4 |
| 20260506110041 | 60 | 0 | 0.0 | 0.0 | 0.00 | 0.00 | 0.00 | 93 | 1015.4 |
| 20260506105520 | 59 | 0 | 0.0 | 0.0 | 0.00 | 0.00 | 0.00 | 92 | 1015.3 |
| 20260506105021 | 60 | 0 | 0.0 | 0.0 | 0.00 | 0.00 | 0.00 | 93 | 1015.2 |
| 20260506104544 | 59 | 0 | 0.0 | 0.0 | 0.00 | 0.00 | 0.00 | 92 | 1015.2 |
| 20260506104020 | 59 | 0 | 0.0 | 0.0 | 0.00 | 0.00 | 0.00 | 92 | 1015.1 |
| 20260506103520 | 60 | 0 | 0.0 | 0.0 | 0.00 | 0.00 | 0.00 | 91 | 1015.0 |
| 20260506103037 | 59 | 0 | 0.0 | 0.0 | 0.00 | 0.00 | 0.00 | 91 | 1015.0 |
| 20260506102523 | 60 | 0 | 0.0 | 0.0 | 0.00 | 0.00 | 0.00 | 91 | 1014.9 |
| 20260506102020 | 60 | 0 | 0.0 | 0.0 | 0.00 | 0.00 | 0.00 | 90 | 1014.8 |
| 20260506101537 | 61 | 0 | 0.0 | 0.0 | 0.00 | 0.00 | 0.00 | 91 | 1014.8 |
| 20260506101020 | 61 | 0 | 0.0 | 0.0 | 0.00 | 0.00 | 0.00 | 91 | 1014.9 |
| 20260506100520 | 61 | 0 | 0.0 | 0.0 | 0.00 | 0.00 | 0.00 | 91 | 1014.9 |
| 20260506100039 | 61 | 0 | 0.0 | 0.0 | 0.00 | 0.00 | 0.00 | 91 | 1014.7 |
| 20260506095524 | 61 | 0 | 0.0 | 0.0 | 0.00 | 0.00 | 0.00 | 92 | 1014.8 |
| 20260506095021 | 60 | 0 | 0.0 | 0.0 | 0.00 | 0.00 | 0.00 | 92 | 1014.9 |
| 20260506094546 | 60 | 0 | 0.0 | 0.0 | 0.00 | 0.00 | 0.00 | 91 | 1015.0 |
| 20260506094017 | 60 | 0 | 0.0 | 0.0 | 0.00 | 0.00 | 0.00 | 90 | 1015.0 |
| 20260506093523 | 61 | 0 | 0.0 | 0.0 | 0.00 | 0.00 | 0.00 | 90 | 1014.9 |
| 20260506093102 | 61 | 0 | 0.0 | 0.0 | 0.00 | 0.00 | 0.00 | 91 | 1014.7 |
| 20260506092520 | 61 | 0 | 0.0 | 0.0 | 0.00 | 0.00 | 0.00 | 91 | 1014.8 |
| 20260506092020 | 61 | 0 | 0.0 | 0.0 | 0.00 | 0.00 | 0.00 | 91 | 1014.6 |
| 20260506091545 | 60 | 0 | 0.0 | 0.0 | 0.00 | 0.00 | 0.00 | 92 | 1014.8 |
| 20260506091021 | 60 | 0 | 0.0 | 0.0 | 0.00 | 0.00 | 0.00 | 91 | 1014.9 |
| 20260506090520 | 60 | 0 | 0.0 | 0.0 | 0.00 | 0.00 | 0.00 | 91 | 1014.8 |
| 20260506090040 | 60 | 0 | 0.0 | 0.0 | 0.00 | 0.00 | 0.00 | 91 | 1014.7 |
| 20260506085523 | 60 | 0 | 0.0 | 0.0 | 0.00 | 0.00 | 0.00 | 91 | 1014.7 |
| 20260506085021 | 60 | 0 | 0.0 | 0.0 | 0.00 | 0.00 | 0.00 | 90 | 1014.7 |
| 20260506084536 | 60 | 0 | 0.0 | 0.0 | 0.00 | 0.00 | 0.00 | 90 | 1014.8 |
| 20260506084022 | 60 | 0 | 0.0 | 0.0 | 0.00 | 0.00 | 0.00 | 90 | 1014.7 |
| 20260506083520 | 61 | 0 | 0.0 | 0.0 | 0.00 | 0.00 | 0.00 | 90 | 1014.7 |
| 20260506083040 | 61 | 0 | 0.0 | 0.0 | 0.00 | 0.00 | 0.00 | 90 | 1014.6 |
| 20260506082520 | 60 | 0 | 0.0 | 0.0 | 0.00 | 0.00 | 0.00 | 90 | 1014.6 |
| 20260506082018 | 60 | 0 | 0.0 | 0.0 | 0.00 | 0.00 | 0.00 | 90 | 1014.7 |
| 20260506081541 | 61 | 0 | 0.0 | 0.0 | 0.00 | 0.00 | 0.00 | 89 | 1014.6 |
| 20260506081022 | 61 | 0 | 0.0 | 0.0 | 0.00 | 0.00 | 0.00 | 90 | 1014.6 |
| 20260506080521 | 61 | 0 | 0.0 | 0.0 | 0.00 | 0.00 | 0.00 | 89 | 1014.6 |
| 20260506073521 | 61 | 0 | 0.0 | 0.0 | 0.00 | 0.00 | 0.00 | 90 | 1014.9 |
| 20260506073039 | 61 | 0 | 0.0 | 0.0 | 0.00 | 0.00 | 0.00 | 90 | 1014.9 |
| 20260506072519 | 61 | 0 | 0.0 | 0.0 | 0.00 | 0.00 | 0.00 | 90 | 1015.0 |
| 20260506072020 | 60 | 0 | 0.0 | 0.0 | 0.00 | 0.00 | 0.00 | 90 | 1015.0 |
| 20260506071536 | 60 | 0 | 0.0 | 0.0 | 0.00 | 0.00 | 0.00 | 90 | 1015.1 |
| 20260506071021 | 60 | 0 | 0.0 | 0.0 | 0.00 | 0.00 | 0.00 | 89 | 1015.1 |
| 20260506070523 | 61 | 0 | 0.0 | 0.0 | 0.00 | 0.00 | 0.00 | 89 | 1015.0 |
| 20260506062021 | 63 | 0 | 0.0 | 0.0 | 0.00 | 0.00 | 0.00 | 86 | 1015.3 |
| 20260506061555 | 63 | 0 | 0.0 | 0.0 | 0.00 | 0.00 | 0.00 | 86 | 1015.3 |
| 20260506061019 | 63 | 0 | 0.0 | 0.0 | 0.00 | 0.00 | 0.00 | 86 | 1015.3 |
| 20260506060518 | 63 | 0 | 0.0 | 0.0 | 0.00 | 0.00 | 0.00 | 86 | 1015.5 |
| 20260506051015 | 65 | 0 | 0.0 | 0.0 | 0.00 | 0.00 | 0.00 | 80 | 1015.7 |
| 20260506050516 | 66 | 0 | 0.0 | 0.0 | 0.00 | 0.00 | 0.00 | 79 | 1015.8 |
| 20260506045018 | 66 | 0 | 0.0 | 0.0 | 0.00 | 0.00 | 0.00 | 80 | 1016.0 |
| 20260506044534 | 65 | 0 | 0.0 | 0.0 | 0.00 | 0.00 | 0.00 | 81 | 1016.0 |
| 20260506044015 | 65 | 0 | 0.0 | 0.0 | 0.00 | 0.00 | 0.00 | 82 | 1016.1 |
| 20260506043516 | 64 | 0 | 0.0 | 0.0 | 0.00 | 0.00 | 0.00 | 81 | 1016.2 |
| 20260506043033 | 66 | 0 | 0.0 | 0.0 | 0.00 | 0.00 | 0.00 | 78 | 1016.1 |
| 20260506042515 | 67 | 0 | 0.0 | 0.0 | 0.00 | 0.00 | 0.00 | 78 | 1016.2 |
| 20260506042016 | 67 | 0 | 0.0 | 0.0 | 0.00 | 0.00 | 0.00 | 78 | 1016.2 |
| 20260506041536 | 67 | 0 | 0.0 | 0.0 | 0.00 | 0.00 | 0.00 | 77 | 1016.1 |
| 20260506041016 | 67 | 0 | 0.0 | 0.0 | 0.00 | 0.00 | 0.00 | 76 | 1016.1 |
| 20260506040516 | 68 | 0 | 0.0 | 0.0 | 0.00 | 0.00 | 0.00 | 75 | 1016.1 |
| 20260506040035 | 68 | 0 | 0.0 | 0.9 | 0.00 | 0.00 | 0.00 | 74 | 1016.2 |
| 20260506035516 | 69 | 0 | 0.0 | 0.9 | 0.00 | 0.00 | 0.00 | 72 | 1016.0 |
| 20260506035018 | 70 | 0 | 0.0 | 1.7 | 0.00 | 0.00 | 0.00 | 71 | 1015.9 |
| 20260506034534 | 70 | 105 | 0.0 | 1.7 | 0.00 | 0.00 | 0.00 | 71 | 1015.8 |
| 20260506034016 | 70 | 115 | 0.9 | 1.7 | 0.00 | 0.00 | 0.00 | 70 | 1015.8 |
| 20260506033515 | 71 | 0 | 0.0 | 3.5 | 0.00 | 0.00 | 0.00 | 70 | 1015.8 |
| 20260506033043 | 71 | 0 | 0.9 | 3.5 | 0.00 | 0.00 | 0.00 | 70 | 1015.8 |
| 20260506032515 | 71 | 145 | 0.9 | 3.5 | 0.00 | 0.00 | 0.00 | 70 | 1015.7 |
| 20260506032015 | 71 | 116 | 0.9 | 5.2 | 0.00 | 0.00 | 0.00 | 69 | 1015.6 |
| 20260506031533 | 71 | 110 | 0.9 | 6.1 | 0.00 | 0.00 | 0.00 | 69 | 1015.7 |
| 20260506031016 | 71 | 118 | 2.6 | 6.1 | 0.00 | 0.00 | 0.00 | 69 | 1015.6 |
| 20260506030515 | 71 | 125 | 1.7 | 6.1 | 0.00 | 0.00 | 0.00 | 68 | 1015.6 |
| 20260506030037 | 71 | 101 | 1.7 | 6.1 | 0.00 | 0.00 | 0.00 | 68 | 1015.6 |
| 20260506025516 | 71 | 113 | 2.6 | 6.1 | 0.00 | 0.00 | 0.00 | 68 | 1015.7 |
| 20260506025015 | 71 | 105 | 2.6 | 6.1 | 0.00 | 0.00 | 0.00 | 68 | 1015.6 |
| 20260506024535 | 72 | 122 | 1.7 | 3.5 | 0.00 | 0.00 | 0.00 | 67 | 1015.7 |
| 20260506024016 | 72 | 111 | 0.0 | 4.3 | 0.00 | 0.00 | 0.00 | 67 | 1015.6 |
| 20260506023516 | 71 | 113 | 0.9 | 4.3 | 0.00 | 0.00 | 0.00 | 68 | 1015.6 |
| 20260506023047 | 71 | 101 | 0.9 | 3.5 | 0.00 | 0.00 | 0.00 | 67 | 1015.6 |
| 20260506022515 | 71 | 113 | 0.0 | 0.9 | 0.00 | 0.00 | 0.00 | 67 | 1015.5 |
| 20260506022015 | 72 | 0 | 0.0 | 0.0 | 0.00 | 0.00 | 0.00 | 66 | 1015.5 |
| 20260506021532 | 71 | 0 | 0.0 | 0.0 | 0.00 | 0.00 | 0.00 | 67 | 1015.5 |
| 20260506021016 | 71 | 0 | 0.0 | 0.0 | 0.00 | 0.00 | 0.00 | 67 | 1015.5 |
| 20260506020515 | 72 | 0 | 0.0 | 0.0 | 0.00 | 0.00 | 0.00 | 66 | 1015.4 |
| 20260506020105 | 72 | 0 | 0.0 | 0.0 | 0.00 | 0.00 | 0.00 | 65 | 1015.3 |
| 20260506015517 | 72 | 0 | 0.0 | 0.0 | 0.00 | 0.00 | 0.00 | 65 | 1015.4 |